Content
SEND FEEDBACK

Daily
Averages
Monthly
Summary
Namibia

SWAKOPMUND, NAMIBIA


Home > Africa > Namibia
Elevation: 38 feet     Latitude: 22 41S     Longitude: 014 31E

WEATHER
 
SELECT A DAY
Number of Records: 63,099;   Date Range: 5/7/97 - 7/20/14
 
SHARE

PRINT THIS DATA

[ ← Previous Day ]
WEATHER ALMANAC - JANUARY 31, 2013
[ Next Day → ]
[ °C ]   °F
Weather ElementAverageHighLow
Temperature65.7 °F73.4 °F (3:00 pm)60.8 °F (4:00 am)
Dewpoint57.7 °F59 °F (8:00 am)55.4 °F (5:00 am)
Humidity75.7 %88 % (4:00 am)60 % (4:00 pm)
Barometer29.90 in29.92 in (1:00 am)29.86 in (4:00 pm)
Wind Speed4.9 mph10.4 mph (4:00 pm)
Weather ElementAverage
Visibility6.2 mi
Wind DirectionSSW (217.6 °)

Weather ElementTotal
Precipitation---
Cooling Degree Days2.1 (Base 65)
Growing Degree Days17.1 (Base 50)
Averaged from 21 records on January 31, 2013
WEATHER CONDITIONS BREAKOUT
WIND DIRECTION BREAKOUT
WEATHER BY HOUR - JANUARY 31, 2013
[ °C ]   °F
Local TimeTemperatureDewpointHumidityBarometerVisibilityWind DirectionWind SpeedGust SpeedPrecipitationEventsConditions
1:00 AM64.4 °F57.2 °F77 %29.92 inNW (320°)2.3 mph
2:00 AM62.6 °F57.2 °F82 %29.92 inNorth (10°)2.3 mph
3:00 AM62.6 °F57.2 °F82 %29.92 inWest (280°)2.3 mph
4:00 AM60.8 °F57.2 °F88 %29.89 inCalm
5:00 AM60.8 °F55.4 °F82 %29.89 inNorth (10°)3.5 mphClear
6:00 AM60.8 °F57.2 °F88 %29.89 inNorth (360°)5.8 mph
7:00 AM62.6 °F57.2 °F82 %29.89 in6.2 miWSW (240°)4.6 mphOvercast
8:00 AM64.4 °F59.0 °F83 %29.92 in6.2 miSW (220°)4.6 mphOvercast
9:00 AM66.2 °F59.0 °F78 %29.92 in6.2 miSSW (200°)5.8 mphOvercast
10:00 AM66.2 °F57.2 °F73 %29.92 in6.2 miNorth (350°)5.8 mphMostly Cloudy
11:00 AM69.8 °F59.0 °F68 %29.92 inSouth (190°)6.9 mph
12:00 PM69.8 °F59.0 °F68 %29.92 inSW (220°)8.1 mph
1:00 PM71.6 °F59.0 °F64 %29.92 inWSW (250°)5.8 mphClear
2:00 PM69.8 °F59.0 °F68 %29.89 inWSW (250°)9.2 mph
3:00 PM73.4 °F59.0 °F61 %29.89 inWSW (240°)9.2 mph
4:00 PM71.6 °F57.2 °F60 %29.86 inSW (230°)10.4 mph
7:00 PM66.2 °F57.2 °F73 %29.86 inSSW (210°)5.8 mph
8:00 PM64.4 °F57.2 °F77 %29.89 inWSW (240°)4.6 mph
9:00 PM64.4 °F57.2 °F77 %29.92 inWSW (240°)3.5 mph
10:00 PM62.6 °F57.2 °F82 %29.92 inWest (270°)1.2 mph
11:00 PM64.4 °F57.2 °F77 %29.92 inWSW (240°)1.2 mph
Hourly data recorded from FYWB, located miles away from Swakopmund, Namibia







STORIES FROM OUR PARTNERS